Location: Nairn
(57.5833°N, 3.8667°W)
Time: 10:08:03
(UTC+00:00)

N. Korean satellite - Pass Details

Date: 30 October 2020
Orbit: 452 x 504 km, 97.2° (Epoch: 25 November)

Event Time Altitude Azimuth Distance (km) Brightness Sun altitude
Rises 17:53:00 0° 206° (SSW) 2,528 10.7 -11.1°
Reaches altitude 10° 17:55:37 10° 227° (SW) 1,644 10.2 -11.4°
Maximum altitude 17:58:00 17° 270° (W) 1,262 9.9 -11.7°
Drops below altitude 10° 18:00:24 10° 313° (NW) 1,635 9.8 -12.0°
Sets 18:03:00 0° 335° (NNW) 2,507 10.4 -12.4°
